Weather History for Algona, IA

Change the Weather History Date:

Thursday, September 22, 2011

  Actual Average Record
Temperature  
Mean Temperature 52 °F -  
Max Temperature 60 °F 69 °F 84 °F (2004)
Min Temperature 44 °F 46 °F 35 °F (2012)
Degree Days  
Heating Degree Days 13    
Growing Degree Days 2 (Base 50)    
Moisture  
Dew Point 39 °F    
Average Humidity 65    
Maximum Humidity 93    
Minimum Humidity 31    
Precipitation  
Precipitation 0.00 in - - ()
Sea Level Pressure  
Sea Level Pressure 30.13 in    
Wind  
Wind Speed 6 mph (NW)    
Max Wind Speed 9 mph    
Max Gust Speed -    
Visibility 9 miles    
Events Rain    
Averages and records for this station are not official NWS values.
T = Trace of Precipitation, MM = Missing Value Source: NWS Daily Summary

Daily Weather History Graph

Daily Weather History Graph

Search for Another Location

Airport:

Trip Planner

Search our weather history database for the weather conditions in past years. The results will help you decide how hot, cold, wet, or windy it might be!

Date:

Astronomy

Sep. 22, 2011 Rise Set
Actual Time 7:04 AM CDT 7:14 PM CDT
Civil Twilight 6:35 AM CDT 7:43 PM CDT
Nautical Twilight 6:02 AM CDT 8:16 PM CDT
Astronomical Twilight 5:28 AM CDT 8:50 PM CDT
Moon 1:17 AM CDT (9/22) 4:14 PM CDT (9/22)
Length of Visible Light 13h 07m
Length of Day
12h 10m
Waning Crescent, 28% of the Moon is Illuminated
Sep 22
Waning Crescent
Sep 27
New
Oct 3
First Quarter
Oct 11
Full
Oct 19
Last Quarter

Hourly Weather History & Observations

Time (CDT) Temp. Windchill Dew Point Humidity Pressure Visibility Wind Dir Wind Speed Gust Speed Precip Events Conditions
12:15 AM 51.8 °F - 39.2 °F 62% 30.12 in 10.0 mi WNW 6.9 mph - N/A   Overcast
12:35 AM 51.8 °F - 39.2 °F 62% 30.11 in 10.0 mi WNW 5.8 mph - N/A   Overcast
12:55 AM 50.0 °F - 39.2 °F 66% 30.10 in 10.0 mi WNW 3.5 mph - N/A   Scattered Clouds
1:15 AM 46.4 °F 44.3 °F 39.2 °F 76% 30.10 in 10.0 mi WNW 4.6 mph - N/A   Clear
1:35 AM 46.4 °F 45.2 °F 39.2 °F 76% 30.10 in 10.0 mi NW 3.5 mph - N/A   Clear
1:55 AM 46.4 °F 43.5 °F 39.2 °F 76% 30.10 in 10.0 mi WNW 5.8 mph - N/A   Clear
2:15 AM 44.6 °F 41.4 °F 39.2 °F 81% 30.10 in 10.0 mi WNW 5.8 mph - N/A   Clear
2:35 AM 44.6 °F 41.4 °F 39.2 °F 81% 30.10 in 10.0 mi WNW 5.8 mph - N/A   Mostly Cloudy
2:55 AM 46.4 °F 44.3 °F 41.0 °F 81% 30.10 in 10.0 mi WNW 4.6 mph - N/A   Overcast
3:15 AM 48.2 °F - 41.0 °F 76% 30.10 in 10.0 mi WNW 4.6 mph - N/A   Overcast
3:35 AM 48.2 °F - 41.0 °F 76% 30.10 in 10.0 mi WNW 5.8 mph - N/A   Overcast
3:55 AM 48.2 °F - 39.2 °F 71% 30.11 in 10.0 mi WNW 5.8 mph - N/A   Overcast
4:15 AM 48.2 °F - 39.2 °F 71% 30.11 in 10.0 mi WNW 5.8 mph - N/A   Overcast
4:35 AM 48.2 °F - 39.2 °F 71% 30.11 in 10.0 mi WNW 5.8 mph - N/A   Overcast
4:55 AM 48.2 °F - 39.2 °F 71% 30.11 in 10.0 mi WNW 4.6 mph - N/A   Overcast
5:15 AM 48.2 °F - 39.2 °F 71% 30.11 in 10.0 mi West 4.6 mph - N/A   Overcast
5:35 AM 48.2 °F - 39.2 °F 71% 30.11 in 10.0 mi West 6.9 mph - N/A   Overcast
5:55 AM 48.2 °F - 41.0 °F 76% 30.12 in 10.0 mi West 9.2 mph - N/A Rain Light Rain
6:15 AM 48.2 °F - 42.8 °F 82% 30.12 in 10.0 mi West 8.1 mph - N/A   Overcast
6:35 AM 48.2 °F - 42.8 °F 82% 30.12 in 10.0 mi West 5.8 mph - N/A   Overcast
6:55 AM 46.4 °F 42.9 °F 42.8 °F 87% 30.12 in 10.0 mi West 6.9 mph - N/A   Overcast
7:15 AM 46.4 °F 42.9 °F 44.6 °F 93% 30.12 in 7.0 mi WNW 6.9 mph - N/A Rain Light Rain
7:55 AM 46.4 °F 43.5 °F 44.6 °F 93% 30.13 in 5.0 mi WNW 5.8 mph - N/A   Drizzle
8:15 AM 48.2 °F - 44.6 °F 87% 30.13 in 2.0 mi WNW 6.9 mph - N/A Rain Light Rain
8:35 AM 46.4 °F 42.4 °F 44.6 °F 93% 30.14 in 1.5 mi WNW 8.1 mph - N/A   Drizzle
8:55 AM 48.2 °F - 46.4 °F 93% 30.14 in 5.0 mi WNW 5.8 mph - N/A Rain Rain
9:35 AM 48.2 °F - 46.4 °F 93% 30.15 in 5.0 mi NNW 5.8 mph - N/A Rain Light Rain
9:55 AM 48.2 °F - 46.4 °F 93% 30.16 in 10.0 mi NW 4.6 mph - N/A   Overcast
10:15 AM 48.2 °F - 46.4 °F 93% 30.16 in 7.0 mi NW 4.6 mph - N/A Rain Light Rain
10:55 AM 50.0 °F - 46.4 °F 87% 30.17 in 10.0 mi North 6.9 mph - N/A   Overcast
11:15 AM 51.8 °F - 44.6 °F 76% 30.17 in 10.0 mi North 8.1 mph - N/A   Overcast
11:35 AM 51.8 °F - 42.8 °F 71% 30.17 in 10.0 mi NNW 6.9 mph - N/A   Overcast
11:55 AM 53.6 °F - 42.8 °F 67% 30.17 in 10.0 mi NNW 6.9 mph - N/A   Overcast
12:15 PM 53.6 °F - 42.8 °F 67% 30.16 in 10.0 mi NW 8.1 mph - N/A   Mostly Cloudy
12:35 PM 53.6 °F - 39.2 °F 58% 30.16 in 10.0 mi NNW 5.8 mph - N/A   Mostly Cloudy
12:55 PM 55.4 °F - 37.4 °F 51% 30.16 in 10.0 mi North 5.8 mph - N/A   Overcast
1:15 PM 57.2 °F - 41.0 °F 55% 30.15 in 10.0 mi NNE 8.1 mph - N/A   Mostly Cloudy
1:35 PM 57.2 °F - 39.2 °F 51% 30.15 in 10.0 mi NE 4.6 mph - N/A   Mostly Cloudy
1:55 PM 55.4 °F - 37.4 °F 51% 30.14 in 10.0 mi NNW 6.9 mph - N/A   Overcast
2:15 PM 57.2 °F - 37.4 °F 48% 30.14 in 10.0 mi North 6.9 mph - N/A   Overcast
2:35 PM 57.2 °F - 35.6 °F 44% 30.13 in 10.0 mi West 6.9 mph - N/A   Overcast
3:15 PM 60.8 °F - 33.8 °F 36% 30.12 in 10.0 mi WNW 4.6 mph - N/A   Mostly Cloudy
3:35 PM 57.2 °F - 33.8 °F 41% 30.12 in 10.0 mi NNW 9.2 mph - N/A   Overcast
3:55 PM 57.2 °F - 33.8 °F 41% 30.12 in 10.0 mi NNW 6.9 mph - N/A   Overcast
4:15 PM 57.2 °F - 33.8 °F 41% 30.12 in 10.0 mi NW 4.6 mph - N/A   Mostly Cloudy
4:35 PM 59.0 °F - 32.0 °F 36% 30.11 in 10.0 mi NNW 8.1 mph - N/A   Mostly Cloudy
4:55 PM 57.2 °F - 32.0 °F 38% 30.12 in 10.0 mi NW 6.9 mph - N/A   Overcast
5:15 PM 57.2 °F - 32.0 °F 38% 30.12 in 10.0 mi NW 4.6 mph - N/A   Mostly Cloudy
5:35 PM 57.2 °F - 32.0 °F 38% 30.12 in 10.0 mi NW 4.6 mph - N/A   Mostly Cloudy
5:55 PM 59.0 °F - 28.4 °F 31% 30.12 in 10.0 mi NW 9.2 mph - N/A   Mostly Cloudy
6:15 PM 57.2 °F - 30.2 °F 36% 30.12 in 10.0 mi NW 5.8 mph - N/A   Overcast
6:35 PM 57.2 °F - 33.8 °F 41% 30.12 in 10.0 mi North 4.6 mph - N/A   Overcast
6:55 PM 57.2 °F - 30.2 °F 36% 30.12 in 10.0 mi NNW 4.6 mph - N/A   Mostly Cloudy
7:15 PM 55.4 °F - 32.0 °F 41% 30.13 in 10.0 mi North 3.5 mph - N/A   Scattered Clouds
7:35 PM 51.8 °F - 32.0 °F 47% 30.13 in 10.0 mi North 4.6 mph - N/A   Clear
7:55 PM 51.8 °F - 33.8 °F 50% 30.13 in 10.0 mi North 3.5 mph - N/A   Clear
8:15 PM 50.0 °F - 33.8 °F 54% 30.14 in 10.0 mi North 4.6 mph - N/A   Clear
8:35 PM 46.4 °F 45.2 °F 33.8 °F 62% 30.15 in 10.0 mi North 3.5 mph - N/A   Clear
8:55 PM 46.4 °F - 33.8 °F 62% 30.15 in 10.0 mi Calm Calm - N/A   Clear
9:15 PM 46.4 °F 45.2 °F 33.8 °F 62% 30.16 in 10.0 mi NNE 3.5 mph - N/A   Clear
9:35 PM 46.4 °F - 33.8 °F 62% 30.16 in 10.0 mi Calm Calm - N/A   Clear
9:55 PM 42.8 °F - 33.8 °F 70% 30.16 in 10.0 mi Calm Calm - N/A   Clear
10:15 PM 44.6 °F - 33.8 °F 66% 30.16 in 10.0 mi Calm Calm - N/A   Clear
10:35 PM 44.6 °F - 33.8 °F 66% 30.16 in 10.0 mi Calm Calm - N/A   Clear
10:55 PM 41.0 °F - 33.8 °F 76% 30.16 in 10.0 mi Calm Calm - N/A   Clear
11:15 PM 41.0 °F - 32.0 °F 70% 30.17 in 10.0 mi Calm Calm - N/A   Clear
11:35 PM 39.2 °F - 33.8 °F 81% 30.16 in 10.0 mi Calm Calm - N/A   Clear
11:55 PM 39.2 °F - 33.8 °F 81% 30.16 in 10.0 mi Calm Calm - N/A   Clear